x

8413320 - Bar Harbor, Me (atgm1) Weather Station

6:54 - Fri 29th Apr 2016 All times are EDT. -4 hours from GMT.

  • Wind
    6mph, 7mph gusts
  • Sea Temp 43°f
  • Luft Temp 35°f
  • Sea Pressure 1022.8mb
  • 8413320 - Bar Harbor, Me
  • 8413320 - Bar Harbor, Me

More Historic Weather Station data

Upgrade to MSW Pro to gain access to the past 30 days of data for over 8000 Wavebouys and Weather Stations around the globe.

Join Pro

Comparision Forecast

View Surf forecast
   
Fr 04/29 6:54 6 7 mph 1022.8mb 43f 35f
6:48 3 7 mph 1022.7mb 43f 35f
6:42 5 6 mph 1022.6mb 43f 35f
6:36 6 7 mph 1022.6mb 43f 35f
6:30 5 6 mph 1022.6mb 43f 35f
6:24 3 5 mph 1022.6mb 43f 35f
6:18 3 6 mph 1022.5mb 43f 35f
6:12 3 6 mph 1022.4mb 43f 35f
6:06 3 6 mph 1022.4mb 43f 35f
6:00 5 6 mph 1022.4mb 43f 35f
5:54 3 5 mph 1022.4mb 43f 35f
5:48  -  3 mph 1022.3mb 43f 34f
5:42  -  2 mph 1022.4mb 43f 34f
5:36 2
mph
1022.3mb 43f 33f
5:30  -  3 mph 1022.2mb 43f 32f
5:24 2 5 mph 1022.2mb 43f 33f
5:18 2 6 mph 1022.1mb 43f 33f
5:12 3 6 mph 1022mb 43f 34f
5:06 3 6 mph 1022mb 43f 34f
5:00 5 6 mph 1021.9mb 43f 34f
4:54 5 6 mph 1021.9mb 43f 34f
4:48 5 6 mph 1021.9mb 43f 34f
4:42 3 6 mph 1021.8mb 43f 34f
4:36 3 7 mph 1021.9mb 43f 34f
4:30 5 7 mph 1021.8mb 43f 34f
4:24 5 6 mph 1021.8mb 43f 34f
4:18 5 6 mph 1021.9mb 43f 34f
4:12 5 6 mph 1021.9mb 43f 34f
4:06 2 6 mph 1021.8mb 43f 34f
4:00 5 8 mph 1021.8mb 43f 34f
3:54 5 6 mph 1021.8mb 43f 34f
3:48 3 7 mph 1021.7mb 43f 34f
3:42 5 7 mph 1021.7mb 43f 34f
3:36 3 6 mph 1021.8mb 43f 34f
3:30 3 5 mph 1021.9mb 43f 34f
3:24 3 8 mph 1021.8mb 43f 34f
3:18 5 8 mph 1021.9mb 43f 34f
3:12 3 10 mph 1021.8mb 43f 34f
3:06 7 9 mph 1021.8mb 43f 34f
3:00 6 8 mph 1021.8mb 43f 34f
2:54 7 9 mph 1021.8mb 43f 34f
2:48 6 8 mph 1021.8mb 43f 34f
2:42 6 7 mph 1021.8mb 43f 34f
2:36 6 8 mph 1021.8mb 43f 34f
2:30 6 9 mph 1021.8mb 43f 35f
2:24 6 8 mph 1021.7mb 43f 35f
2:18 5 8 mph 1021.7mb 43f 35f
2:12 7 9 mph 1021.7mb 43f 35f
2:06 8 10 mph 1021.7mb 43f 35f
2:00 7 13 mph 1021.7mb 43f 35f
1:54 8 11 mph 1021.7mb 43f 35f
1:48 7 10 mph 1021.8mb 43f 34f
1:42 8 14 mph 1021.8mb 43f 34f
1:36 13 14 mph 1021.9mb 43f 34f
1:30 7 10 mph 1021.8mb 43f 35f
1:24 7 10 mph 1021.8mb 43f 35f
1:18 8 11 mph 1021.8mb 43f 35f
1:12 9 11 mph 1021.8mb 43f 35f
1:06 9 11 mph 1021.8mb 43f 36f
1:00 7 8 mph 1021.7mb 43f 36f
12:54 7 10 mph 1021.6mb 43f 36f
12:48 6 9 mph 1021.6mb 43f 37f
12:42 6 8 mph 1021.5mb 43f 37f
12:36 7 9 mph 1021.5mb 43f 37f
12:30 6 7 mph 1021.4mb 43f 37f
12:24 5 7 mph 1021.4mb 43f 37f
12:18 6 7 mph 1021.3mb 43f 37f
12:12 6 9 mph 1021.3mb 43f 37f
12:06 5 7 mph 1021.3mb 43f 38f
12:00 6 8 mph 1021.2mb 43f 38f
Do 04/28 11:54 6 8 mph 1021.2mb 43f 38f
11:48 6 7 mph 1021.2mb 43f 38f
11:42 5 7 mph 1021.1mb 43f 38f
11:36 6 7 mph 1021.1mb 43f 38f
11:30 5 6 mph 1021.1mb 43f 38f
11:24 5 7 mph 1021.1mb 43f 39f
11:18 6 8 mph 1021mb 43f 39f
11:12 6 9 mph 1021mb 43f 39f
11:06 8 9 mph 1020.9mb 43f 40f
11:00  -  mph 1020.9mb 43f 40f
10:54  -  mph 1020.8mb 43f 40f
10:48  -  mph 1020.6mb - -
10:42  -  mph 1020.6mb - -
10:36  -  mph 1020.5mb - -
10:30  -  mph 1020.4mb - -
10:24  -  mph 1020.4mb - -
10:18 5 6 mph 1020.3mb 44f 40f
10:12 5 7 mph 1020.3mb 44f 39f
10:06 7 8 mph 1020.3mb 44f 40f
10:00  -  mph 1020.2mb 44f -
9:54  -  mph 1020.2mb 44f -
9:48  -  mph 1020.1mb - -
9:42  -  mph 1020mb - -
9:36  -  mph 1019.8mb - -
9:30 7 9 mph 1019.8mb 43f 40f
9:24 7 10 mph 1019.7mb 43f 40f
9:18  -  mph 1019.7mb 44f 40f
9:12  -  mph 1019.6mb 44f 40f
9:06  -  mph 1019.6mb 44f 41f
9:00  -  mph 1019.5mb 44f 41f
8:54  -  mph 1019.5mb 44f 41f
8:48 7 10 mph 1019.4mb 44f -
8:42 8 10 mph 1019.3mb 44f -
8:36 6 9 mph 1019.2mb 44f -
8:30  -  mph 1019.2mb 44f -
8:24  -  mph 1019.1mb 44f -
8:18 7 9 mph 1018.9mb 44f 42f
8:12 6 7 mph 1018.8mb 44f 41f
8:06 5 7 mph 1018.6mb 44f 42f
8:00  -  mph 1018.4mb 44f 43f
7:54  -  mph 1018.3mb 44f 44f
7:48  -  mph 1018.2mb 44f 44f
7:42  -  mph 1018mb 44f 44f
7:36  -  mph 1017.9mb 44f 44f
7:30  -  mph 1017.7mb 44f -
7:24  -  mph 1017.6mb 44f -
7:18  -  mph 1017.5mb 44f -
7:12  -  mph 1017.5mb 44f -
7:06  -  mph 1017.4mb 44f -
7:00  -  mph 1017.3mb 44f 45f
6:54  -  mph 1017.2mb 44f 45f
6:48  -  mph 1017.1mb 44f 45f
6:42  -  mph 1017mb 44f 44f
6:36  -  mph 1016.9mb 44f 44f
6:30  -  mph 1016.8mb 44f 45f
6:24  -  mph 1016.8mb 44f 46f
6:18 8 10 mph 1016.7mb 44f 45f
6:12 7 11 mph 1016.6mb 44f 45f
6:06 7 9 mph 1016.6mb 44f 45f
6:00  -  mph 1016.5mb 44f 45f
5:54  -  mph 1016.4mb 44f 45f
5:48  -  mph 1016.3mb 44f -
5:42  -  mph 1016.3mb 44f -
5:36  -  mph 1016.2mb 44f -
5:30 7 8 mph 1016.1mb 44f 45f
5:24 7 10 mph 1016.1mb 44f 45f
5:18 7 10 mph 1016.1mb 44f 45f
5:12 6 11 mph 1016mb 44f 45f
5:06 10 13 mph 1016mb 44f 45f
5:00 7 11 mph 1015.9mb 44f 45f
4:54 7 10 mph 1015.8mb 44f 45f
4:48 6 13 mph 1015.9mb 44f 45f
4:42 11 15 mph 1015.9mb 44f 45f
4:36 6 9 mph 1015.9mb 44f 45f
4:30 7 13 mph 1015.9mb 44f 44f
4:24 9 13 mph 1015.8mb 44f 44f
4:18 11 15 mph 1015.7mb 44f 44f
4:12 5 11 mph 1015.7mb 44f 44f
4:06 9 14 mph 1015.7mb 44f 44f
4:00 10 14 mph 1015.7mb 44f 44f
3:54 13 14 mph 1015.7mb 44f 44f
3:48 8 14 mph 1015.8mb 44f 44f
3:42 10 14 mph 1015.7mb 43f 44f
3:36 6 11 mph 1015.7mb 43f 43f
3:30 7 14 mph 1015.8mb 44f 43f
3:24 13 17 mph 1015.7mb 44f 43f
3:18 15 17 mph 1015.7mb 44f 43f
3:12 6 15 mph 1015.7mb 44f 43f
3:06 15 20 mph 1015.7mb 44f 43f
3:00 16 20 mph 1015.6mb 44f 43f
2:54 11 17 mph 1015.8mb 44f 42f
2:48 8 11 mph 1015.8mb 44f 42f
2:42 9 18 mph 1016mb 44f 42f
2:36 14 16 mph 1016mb 45f 42f
2:30 13 21 mph 1016mb 45f 42f
2:24 11 14 mph 1015.9mb 45f 42f
2:18 13 16 mph 1016mb 44f 41f
2:12 9 14 mph 1016mb 44f 41f
2:06 8 18 mph 1016mb 44f 41f
2:00 13 20 mph 1016mb 44f 41f
1:54 16 21 mph 1015.9mb 44f 41f
1:48 11 17 mph 1015.9mb 44f 41f
1:42 13 15 mph 1015.9mb 44f 41f
1:36 8 21 mph 1015.9mb 44f 40f
1:30 16 22 mph 1015.8mb 44f 40f
1:24 8 13 mph 1015.8mb 44f 40f
1:18 14 20 mph 1015.8mb 43f 39f
1:12 10 20 mph 1015.8mb 43f 40f
1:06 16 21 mph 1015.7mb 43f 40f
1:00 10 14 mph 1015.8mb 43f 40f
12:54 10 17 mph 1015.9mb 43f 40f
12:48 18 23 mph 1015.8mb 43f 39f
12:42 14 22 mph 1015.7mb 43f 39f
12:36 16 26 mph 1015.9mb 43f 39f
12:30 17 23 mph 1015.6mb 43f 39f
12:24 21 25 mph 1015.7mb 43f 39f
12:18 17 24 mph 1015.8mb 43f 39f
12:12 17 21 mph 1015.7mb 43f 39f
12:06 17 23 mph 1015.7mb 43f 39f
12:00 18 24 mph 1015.6mb 43f 39f
11:54 17 25 mph 1015.7mb 43f 38f
11:48 16 23 mph 1015.6mb 43f 39f
11:42 16 22 mph 1015.8mb 43f 38f
11:36 18 25 mph 1015.7mb 43f 38f
11:30 15 21 mph 1015.7mb 43f 38f
11:24 13 18 mph 1015.8mb 43f 38f
11:18 15 24 mph 1015.8mb 43f 38f
11:12 20 22 mph 1015.7mb 43f 38f
11:06 16 20 mph 1015.8mb 43f 38f
11:00 17 22 mph 1015.7mb 43f 38f
10:54 16 23 mph 1015.7mb 42f 37f
10:48 20 25 mph 1015.5mb 42f -
10:42 14 23 mph 1015.6mb 42f -
10:36 21 26 mph 1015.4mb 42f -
10:30 14 20 mph 1015.5mb 42f 38f
10:24 17 25 mph 1015.5mb 42f 37f
10:18 16 23 mph 1015.3mb 42f 37f
10:12 20 25 mph 1015.4mb 42f 37f
10:06 21 26 mph 1015.4mb 42f 37f
10:00 18 25 mph 1015.4mb 42f 37f
9:54 21 25 mph 1015.3mb 42f 37f
9:48 14 25 mph 1015.5mb 42f -
9:42 18 26 mph 1015.3mb 42f -
9:36 18 24 mph 1015.3mb 42f -
9:30 20 24 mph 1015.2mb 42f 37f
9:24 17 24 mph 1015.1mb 42f 37f
9:18 14 20 mph 1015.1mb 42f 36f
9:12 14 21 mph 1015mb 42f 36f
9:06 15 18 mph 1015mb 42f 36f
9:00 14 17 mph 1015mb 42f 36f
8:54 11 18 mph 1015.1mb 42f 36f
8:48 11 15 mph 1015.1mb 42f 36f
8:42 15 20 mph 1015mb 42f 35f
8:36 13 17 mph 1015mb 42f 35f
8:30 10 16 mph 1015.1mb 42f 35f
8:24 11 17 mph 1015.1mb 42f 35f
8:18 11 16 mph 1014.9mb 42f 35f
8:12 10 13 mph 1014.8mb 42f 35f
8:06 11 14 mph 1014.8mb 42f 35f
8:00 14 18 mph 1014.7mb 42f 35f
7:54 14 16 mph 1014.7mb 42f 35f
7:48 13 17 mph 1014.7mb 42f 35f
7:42 11 16 mph 1014.6mb 42f 35f
7:36 11 15 mph 1014.7mb 42f 35f
7:30 11 15 mph 1014.6mb 42f 34f
7:24 11 13 mph 1014.6mb 42f 34f
7:18 11 14 mph 1014.6mb 42f 34f
7:12 11 13 mph 1014.6mb 42f 34f
7:06 10 13 mph 1014.6mb 42f 34f
7:00 10 13 mph 1014.6mb 42f 34f
6:54 11 14 mph 1014.5mb 42f 34f
6:48 11 14 mph 1014.6mb 42f 33f
6:42 11 13 mph 1014.4mb 42f 33f
6:36 9 13 mph 1014.4mb 42f 34f
6:30 10 14 mph 1014.3mb 42f 33f
6:24 10 11 mph 1014.2mb 42f 33f
6:18 9 11 mph 1014mb 42f 33f
6:12 10 11 mph 1014.1mb 42f 33f
6:06 8 11 mph 1014mb 42f 33f
6:00 8 13 mph 1013.9mb 42f 33f
5:54 9 11 mph 1013.9mb 42f 33f
5:48 7 10 mph 1013.9mb 42f 32f
5:42 7 10 mph 1013.7mb 42f 32f
5:36 5 8 mph 1013.6mb 42f 32f
5:30 7 11 mph 1013.5mb 42f 32f
5:24 8 13 mph 1013.3mb 42f 33f
5:18 10 14 mph 1013.3mb 42f 33f
5:12 8 11 mph 1013.1mb 42f 33f
5:06 10 13 mph 1013.1mb 42f 33f
5:00 10 13 mph 1012.9mb 42f 34f
4:54 10 11 mph 1012.8mb 42f 34f
4:48 9 13 mph 1012.6mb 42f 34f
4:42 10 11 mph 1012.6mb 42f 34f
4:36 10 13 mph 1012.6mb 42f 34f
4:30 11 15 mph 1012.5mb 42f 34f
4:24 11 15 mph 1012.4mb 42f 34f
4:18 10 13 mph 1012.3mb 42f 34f
4:12 9 13 mph 1012.3mb 42f 34f
4:06 9 11 mph 1012.3mb 42f 34f
4:00 9 11 mph 1012.2mb 42f 34f
3:54 9 15 mph 1012.2mb 42f 34f
3:48 13 16 mph 1012mb 42f 35f
3:42 14 16 mph 1011.9mb 42f 35f
3:36 15 16 mph 1011.9mb 42f 35f
3:30 13 16 mph 1011.8mb 42f 35f
3:24 10 15 mph 1011.8mb 42f 35f
3:18 13 16 mph 1011.7mb 42f 35f
3:12 11 15 mph 1011.5mb 42f 35f
3:06 10 16 mph 1011.4mb 43f 35f
3:00 11 16 mph 1011.3mb 43f 35f
2:54 13 16 mph 1011.4mb 42f 35f
2:48 13 17 mph 1011.3mb 42f 35f
2:42 13 17 mph 1011.4mb 42f 36f
2:36 11 16 mph 1011.3mb 42f 36f
2:30 13 18 mph 1011.4mb 42f 36f
2:24 10 18 mph 1011.3mb 42f 36f
2:18 11 16 mph 1011.3mb 42f 37f
2:12 13 17 mph 1011.4mb 42f 37f
2:06 13 18 mph 1011.4mb 42f 37f
2:00 13 18 mph 1011.3mb 42f 37f
1:54 11 17 mph 1011.3mb 42f 38f
1:48 10 20 mph 1011.2mb 42f 38f
1:42 13 18 mph 1011.3mb 42f 38f
1:36 11 21 mph 1011.3mb 42f 39f
1:30 17 23 mph 1011.3mb 42f 39f
1:24 16 20 mph 1011.2mb 42f 39f
1:18 16 20 mph 1011.2mb 42f 39f
1:12 16 20 mph 1011.2mb 42f 39f
1:06 14 17 mph 1011.2mb 42f 39f
1:00 14 18 mph 1011.2mb 42f 40f
12:54 15 18 mph 1011.1mb 42f 40f
12:48 15 21 mph 1011.2mb 42f 40f
12:42 15 18 mph 1011.2mb 42f 40f
12:36 17 20 mph 1011.1mb 42f 40f
12:30 17 21 mph 1011.2mb 42f 40f
12:24 20 24 mph 1011.3mb 42f 40f
12:18 20 23 mph 1011.1mb 42f 40f
12:12 18 24 mph 1011.2mb 42f 40f
12:06 15 20 mph 1011.2mb 42f 40f
12:00 16 20 mph 1011.1mb 42f 41f
Mi 04/27 11:54 17 20 mph 1011mb 42f 41f
11:48  -  mph 1010.9mb 42f 41f
11:42  -  mph 1010.8mb 42f 41f
11:36  -  mph 1010.8mb 42f 41f
11:30 14 18 mph 1010.7mb 42f 41f
11:24 16 21 mph 1010.6mb 42f 41f
11:18 17 22 mph 1010.5mb 42f 41f
11:12 16 20 mph 1010.4mb 42f 42f
11:06 15 21 mph 1010.4mb 42f 42f
11:00  -  mph 1010.3mb 42f 42f
10:54  -  mph 1010.3mb 42f 42f
10:48  -  mph - 42f -
10:42  -  mph - 42f -
10:36  -  mph - 42f -
10:30  -  mph 1009.8mb 42f -
10:24  -  mph 1009.8mb 42f -
10:18 9 21 mph 1009.8mb - 42f
10:12 11 20 mph 1009.6mb - 43f
10:06 9 16 mph 1009.5mb - 43f
10:00  -  mph 1009.4mb 42f -
9:54  -  mph 1009.3mb 42f -
9:48  -  mph 1009mb 42f -
9:42  -  mph 1008.8mb 42f -
9:36  -  mph 1008.8mb 42f -
9:30  -  mph - 42f -
9:24  -  mph - 42f -
9:18  -  mph 1008.3mb 42f -
9:12  -  mph 1007.9mb 42f -
9:06  -  mph 1007.7mb 42f -
9:00  -  mph 1007.7mb 42f 44f
8:54  -  mph 1007.7mb 42f 44f
8:48  -  mph 1007.6mb - -
8:42  -  mph 1007.6mb - -
8:36  -  mph 1007.5mb - -
8:30  -  mph 1007.4mb 42f -
8:24  -  mph 1007.3mb 42f -
8:18 10 15 mph - 42f -
8:12 11 17 mph - 42f -
8:06 8 15 mph - 42f -
8:00  -  mph 1007.2mb 42f -
7:54  -  mph 1007.3mb 43f -
7:48  -  mph 1007.2mb 43f -
7:42  -  mph 1007.1mb 42f -
7:36  -  mph 1007mb 42f -
7:30  -  mph 1007.1mb 42f -
7:24  -  mph 1007.1mb 42f -
7:18  -  mph 1007.2mb 42f 46f
7:12  -  mph 1007.1mb 42f 46f
7:06  -  mph 1007.2mb 42f 46f
7:00  -  mph 1007.2mb 42f 46f
6:54  -  mph 1007.2mb 42f 47f
6:48  -  mph - 42f -
6:42  -  mph - 42f -
6:36  -  mph - 43f -
6:30  -  mph 1007.3mb 43f -
6:24  -  mph 1007.3mb 43f -
6:18 9 18 mph 1007.3mb 43f -
6:12 9 15 mph 1007.3mb 43f -
6:06 7 13 mph 1007.3mb 43f -
6:00  -  mph 1007.3mb 43f -
5:54  -  mph 1007.3mb 43f -
5:48  -  mph 1007.3mb - -
5:42  -  mph 1007.3mb - -
5:36  -  mph 1007.3mb - -
5:30 13 23 mph 1007.3mb 43f 47f
5:24 11 18 mph 1007.3mb 43f 47f
5:18 11 20 mph 1007.2mb 43f 47f
5:12 7 14 mph 1007.2mb 43f 48f
5:06 11 18 mph 1007.2mb 43f 47f
5:00 8 21 mph 1007.1mb 43f 48f
4:54 10 17 mph 1007.1mb 43f 47f
4:48 10 20 mph 1007.1mb 43f 47f
4:42 11 21 mph 1007.1mb 43f 48f
4:36 11 20 mph 1007mb 43f 48f
4:30 10 23 mph 1007mb 43f 48f
4:24 10 15 mph 1007.1mb 43f 48f
4:18 11 18 mph 1007.2mb 43f 48f
4:12 14 20 mph 1007.1mb 43f 48f
4:06 10 17 mph 1007.2mb 43f 49f
4:00 11 17 mph 1007.2mb 43f 49f
3:54 10 16 mph 1007.4mb 43f 49f
3:48 10 21 mph 1007.4mb 43f 49f
3:42 13 20 mph 1007.4mb 42f 48f
3:36 11 22 mph 1007.5mb 42f 48f
3:30 11 21 mph 1007.5mb 42f 48f
3:24 11 22 mph 1007.6mb 42f 48f
3:18 8 17 mph 1007.6mb 42f 49f
3:12 11 20 mph 1007.6mb 42f 49f
3:06 14 20 mph 1007.7mb 42f 49f
3:00 10 20 mph 1007.8mb 42f 49f
2:54 10 20 mph 1007.8mb 42f 49f
2:48 10 16 mph 1007.8mb 42f 50f
2:42 7 15 mph 1007.8mb 42f 50f
2:36 7 14 mph 1007.9mb 42f 49f
2:30 10 14 mph 1007.9mb 42f 49f
2:24 13 18 mph 1008mb 42f 49f
2:18 14 21 mph 1008.1mb 42f 49f
2:12 9 18 mph 1008mb 43f 50f
2:06 10 16 mph 1008mb 43f 48f
2:00 10 16 mph 1008mb 44f 48f
1:54 15 20 mph 1008mb 43f 48f
1:48 10 13 mph 1008mb 43f 48f
1:42 3 14 mph 1008.1mb 43f 49f
1:36 11 15 mph 1008.2mb 43f 48f
1:30 14 21 mph 1008.2mb 43f 47f
1:24 14 17 mph 1008.1mb 43f 47f
1:18 11 17 mph 1008.2mb 43f 47f
1:12 15 21 mph 1008.2mb 43f 47f
1:06 15 22 mph 1008.1mb 43f 48f
1:00 15 18 mph 1008.2mb 43f 46f
12:54 14 18 mph 1008.3mb 43f 47f
12:48 13 22 mph 1008.3mb 43f 46f
12:42 11 22 mph 1008.4mb 43f 47f
12:36 9 16 mph 1008.5mb 43f 47f
12:30 14 18 mph 1008.4mb 43f 46f
12:24 13 18 mph 1008.6mb 43f 47f
12:18 10 17 mph 1008.6mb 43f 47f
12:12 10 18 mph 1008.8mb 43f 46f
12:06 13 20 mph 1008.7mb 43f 46f
12:00 10 21 mph 1008.8mb 43f 47f
11:54 16 21 mph 1008.6mb 43f 46f
11:48 11 18 mph 1008.7mb 43f 45f
11:42 13 16 mph 1008.9mb 43f 46f
11:36 15 24 mph 1008.9mb 43f 45f
11:30 18 22 mph 1008.9mb 43f 45f
11:24 9 20 mph 1009mb 43f 45f
11:18 11 17 mph 1009mb 43f 46f
11:12 11 16 mph 1009mb 43f 45f
11:06 10 16 mph 1009mb 43f 45f
11:00 11 15 mph 1009.1mb 43f 45f
10:54 11 18 mph 1009.2mb 43f 45f
10:48 7 15 mph 1009.3mb 43f -
10:42 13 18 mph 1009.3mb 43f -
10:36 16 21 mph 1009.2mb 43f -
10:30 8 10 mph 1009.3mb 43f 44f
10:24 8 13 mph 1009.4mb 43f 44f
10:18 5 11 mph 1009.4mb 43f 44f
10:12 8 13 mph 1009.5mb 43f 44f
10:06 9 15 mph 1009.6mb 43f 44f
10:00 9 14 mph 1009.6mb 43f 43f
9:54 11 14 mph 1009.6mb 43f 43f
9:48 9 16 mph 1009.7mb 43f 43f
9:42 8 11 mph 1009.7mb 43f 43f
9:36 9 13 mph 1009.8mb 43f 42f
9:30 11 14 mph 1009.8mb 43f 42f
9:24 11 15 mph 1009.8mb 43f 42f
9:18 10 14 mph 1009.8mb 43f 42f
9:12 9 15 mph 1009.7mb 42f 41f
9:06 10 13 mph 1009.8mb 42f 41f
9:00 10 13 mph 1009.7mb 42f 40f
8:54 10 13 mph 1009.6mb 42f 41f
8:48 10 13 mph 1009.6mb 42f 40f
8:42 8 11 mph 1009.6mb 42f 40f
8:36 9 13 mph 1009.6mb 42f 40f
8:30 7 10 mph 1009.6mb 42f 40f
8:24 8 9 mph 1009.6mb 42f 39f
8:18 8 11 mph 1009.6mb 42f 40f
8:12 8 11 mph 1009.7mb 42f 39f
8:06 7 10 mph 1009.6mb 42f 39f
8:00 8 11 mph 1009.6mb 42f 39f
7:54 9 14 mph 1009.6mb 42f 39f
7:48 10 13 mph 1009.7mb 42f 39f
7:42 8 14 mph 1009.7mb 42f 40f
7:36 8 10 mph 1009.6mb 42f 40f
7:30 9 13 mph 1009.5mb 42f 40f
7:24 6 9 mph 1009.5mb 42f 40f
7:18 5 8 mph 1009.5mb 42f 39f
7:12 5 6 mph 1009.5mb 42f 39f
7:06 5 7 mph 1009.5mb 42f 39f
7:00 5 7 mph 1009.5mb 42f 38f
6:54 5 7 mph 1009.6mb 42f 38f
6:48 3 6 mph 1009.6mb 42f 38f
6:42 5 6 mph 1009.6mb 42f 37f
6:36 6 7 mph 1009.6mb 42f 37f
6:30 7 8 mph 1009.5mb 42f 37f
6:24 8 9 mph 1009.5mb 42f 37f
6:18 7 9 mph 1009.4mb 42f 38f
6:12 8 9 mph 1009.2mb 42f 38f
6:06 6 8 mph 1009.2mb 42f 38f
6:00 6 8 mph 1009.2mb 42f 38f
5:54 3 6 mph 1009.2mb 42f 37f
5:48 5 8 mph 1009.1mb 42f 38f
5:42 6 7 mph 1009.1mb 42f 37f
5:36 3 5 mph 1009.1mb 42f 36f
5:30 2 7 mph 1009.1mb 42f 36f
5:24 6 8 mph 1009mb 42f 36f
5:18 5 8 mph 1009mb 42f 35f
5:12 7 14 mph 1009mb 42f 35f
5:06 8 13 mph 1009mb 42f 35f
5:00 9 13 mph 1009mb 42f 35f
4:54 9 14 mph 1008.9mb 42f 35f
4:48 10 14 mph 1008.8mb 42f 36f
4:42 9 13 mph 1008.8mb 42f 36f
4:36 9 14 mph 1008.7mb 42f 36f
4:30 10 14 mph 1008.6mb 42f 36f
4:24 10 14 mph 1008.5mb 42f 36f
4:18 10 14 mph 1008.4mb 42f 35f
4:12 11 14 mph 1008.3mb 42f 35f
4:06 10 13 mph 1008.3mb 42f 35f
4:00 7 14 mph 1008.2mb 42f 35f
3:54 9 13 mph 1008.1mb 42f 35f
3:48 10 14 mph 1008mb 42f 36f
3:42 10 15 mph 1007.9mb 42f 36f
3:36 10 15 mph 1007.9mb 42f 36f
3:30 9 11 mph 1007.9mb 42f 36f
3:24 10 14 mph 1007.9mb 42f 36f
3:18 10 14 mph 1007.9mb 42f 35f
3:12 9 14 mph 1007.9mb 42f 35f
3:06 9 14 mph 1007.9mb 42f 35f
3:00 8 11 mph 1007.9mb 42f 35f
2:54 7 11 mph 1008mb 42f 35f
2:48 8 11 mph 1008mb 42f 35f
2:42 8 11 mph 1007.9mb 42f 35f
2:36 9 14 mph 1007.8mb 42f 36f
2:30 9 14 mph 1007.8mb 42f 36f
2:24 9 13 mph 1007.8mb 42f 36f
2:18 9 14 mph 1007.9mb 42f 36f
2:12 9 14 mph 1007.9mb 42f 36f
2:06 9 14 mph 1007.9mb 42f 35f
2:00 8 13 mph 1008mb 42f 35f
1:54 9 13 mph 1008mb 42f 35f
1:48 7 13 mph 1008.1mb 42f -
1:42 9 14 mph 1008.1mb 42f -
1:36 7 11 mph 1008.2mb 42f -
1:30 9 13 mph 1008.3mb 42f 35f
1:24 7 13 mph 1008.4mb 42f 35f
1:18 8 14 mph 1008.6mb 42f 35f
1:12 8 13 mph 1008.6mb 42f 35f
1:06 6 10 mph 1008.6mb 42f 35f
1:00 6 10 mph 1008.6mb 42f 35f
12:54 7 10 mph 1008.6mb 42f 35f
12:48 6 9 mph 1008.6mb 42f 35f
12:42 6 9 mph 1008.6mb 42f 35f
12:36 6 11 mph 1008.6mb 42f 35f
12:30 6 9 mph 1008.5mb 42f 35f
12:24 6 9 mph 1008.4mb 42f 35f
12:18 6 8 mph 1008.4mb 42f 35f
12:12 2 5 mph 1008.4mb 42f 35f
12:06 3 5 mph 1008.4mb 42f 34f
12:00 3 7 mph 1008.4mb 42f 34f
Di 04/26 11:54 6 8 mph 1008.4mb 42f 34f
11:48 6 9 mph 1008.4mb 42f 34f
11:42 6 8 mph 1008.4mb 42f 35f
11:36 6 8 mph 1008.3mb 43f 35f
11:30 6 8 mph 1008.2mb 42f 35f
11:24 3 7 mph 1008.1mb 43f 35f
11:18 5 8 mph 1008.1mb 42f 35f
11:12 6 9 mph 1008mb 42f 35f
11:06 5 9 mph 1008mb 42f 35f
11:00 6 8 mph 1008mb 42f 35f
10:54 6 9 mph 1008mb 42f 35f
10:48 6 8 mph 1007.9mb 42f 35f
10:42 6 8 mph 1007.9mb 42f 35f
10:36 6 9 mph 1007.9mb 42f 35f
10:30 3 10 mph 1007.9mb 43f 35f
10:24 5 7 mph 1007.9mb 43f 35f
10:18 6 8 mph 1007.8mb 43f 35f
10:12 6 9 mph 1007.9mb 43f 35f
10:06 5 7 mph 1007.9mb 43f 35f
10:00 5 10 mph 1007.9mb 43f -
9:54 6 9 mph 1008mb 43f -
9:48  -  mph 1008mb 43f 35f
9:42  -  mph 1007.9mb 43f 35f
9:36  -  mph 1007.8mb 43f 35f
9:30 7 11 mph 1007.7mb 43f 35f
9:24 7 10 mph 1007.6mb 43f 35f
9:18  -  mph 1007.6mb 43f 35f
9:12  -  mph 1007.5mb 43f 35f
9:06  -  mph 1007.4mb 43f 35f
9:00 7 9 mph 1007.5mb 43f 35f
8:54 6 9 mph 1007.5mb 43f 35f
8:48  -  mph 1007.5mb 43f 35f
8:42  -  mph 1007.6mb 43f 35f
8:36  -  mph 1007.6mb 43f 35f
8:30 6 8 mph 1007.6mb 43f 35f
8:24 7 9 mph 1007.6mb 43f 35f
8:18  -  mph 1007.5mb 43f -
8:12  -  mph 1007.4mb 43f 35f
8:06  -  mph 1007.4mb 43f 36f
8:00 5 7 mph 1007.3mb 43f 36f
7:54 5 7 mph 1007.3mb 43f 36f
7:48  -  mph - 43f 36f
7:42  -  mph - 43f 36f
7:36  -  mph - 44f 36f
7:30 3 7 mph 1007.5mb 44f 36f
7:24 5 7 mph 1007.6mb 44f 37f
7:18  -  mph 1007.6mb 44f 37f
7:12  -  mph 1007.5mb 44f 37f
7:06  -  mph 1007.5mb 44f 37f
7:00 6 7 mph 1007.5mb 44f 37f
6:54 5 7 mph 1007.5mb 44f 37f
6:48  -  mph - 44f -
6:42  -  mph - 44f -
6:36  -  mph - 44f -
6:30 7 8 mph 1007.4mb 44f 37f
6:24 6 7 mph 1007.5mb 44f 37f
6:18 6
mph
1007.3mb 44f 36f
6:12 6 7 mph 1007.2mb 44f 36f
6:06 6 7 mph 1007.3mb 44f 36f
6:00 6 8 mph 1007.3mb 44f 36f
5:54 5 6 mph 1007.4mb 44f 36f
5:48  -  mph 1007.4mb 44f -
5:42  -  mph 1007.3mb 44f -
5:36  -  mph 1007.3mb 44f -
5:30 2 6 mph 1007.2mb 44f 36f
5:24 3 7 mph 1007.3mb 43f 36f
5:18 3 5 mph 1007.3mb 44f 35f
5:12 3 5 mph 1007.3mb 43f 36f
5:06 3 6 mph 1007.4mb 44f 36f
5:00 3 7 mph 1007.4mb 43f 35f
4:54 5 6 mph 1007.4mb 43f 35f
4:48 3 7 mph 1007.4mb 43f 35f
4:42 5 7 mph 1007.3mb 43f 35f
4:36 6 8 mph 1007.4mb 44f 34f
4:30 8 9 mph 1007.3mb 44f 34f
4:24 7 9 mph 1007.4mb 44f 34f
4:18 6 9 mph 1007.5mb 44f 34f
4:12 6 9 mph 1007.6mb 44f 34f
4:06 6 8 mph 1007.6mb 44f 34f
4:00 6 7 mph 1007.7mb 44f 35f
3:54 5 7 mph 1007.7mb 44f 34f
3:48 5 7 mph 1007.8mb 44f 34f
2:54 3 5 mph 1008.4mb 43f 36f
2:48 2 3 mph 1008.4mb 43f 37f
1:54 3 6 mph 1008.7mb 43f 38f
1:48 2 6 mph 1008.8mb 43f 38f
12:54 2 9 mph 1008.8mb 43f 38f
12:48 6 8 mph 1008.8mb 43f 38f
12:30 3 6 mph 1009.1mb 43f 38f
12:24 5 8 mph 1009.1mb 43f 38f
12:18 5 7 mph 1009.2mb 43f 38f
12:12 5 7 mph 1009.3mb 43f 38f
12:06 6 8 mph 1009.4mb 43f 38f
12:00 7 8 mph 1009.5mb 43f 38f
11:54 3 9 mph 1009.6mb 43f 38f
11:48 7 9 mph 1009.7mb 43f 38f
11:42 6 10 mph 1009.8mb 43f 38f
11:36 6 8 mph 1009.9mb 43f 38f
11:30 5 7 mph 1009.9mb 43f 38f
11:24 6 8 mph 1009.9mb 43f 38f
11:18 6 9 mph 1009.9mb 43f 38f
11:12 6 8 mph 1010mb 43f 38f
11:06 6 8 mph 1010.1mb 43f 38f
11:00 3 5 mph 1010.3mb 43f 38f
10:54 3 5 mph 1010.4mb 43f 38f
10:48 3 5 mph 1010.4mb 43f 37f
10:42 2 3 mph 1010.6mb 43f 37f
10:36 2 5 mph 1010.7mb 43f 37f
10:30 5 7 mph 1010.8mb 43f 37f
10:24 6 7 mph 1011.1mb 43f 37f
10:18 5 7 mph 1011.3mb 43f 37f
10:12 5 6 mph 1011.6mb 43f 36f
10:06 5 6 mph 1011.6mb 43f 36f
10:00 5 6 mph 1011.8mb 43f 36f
9:54 5 6 mph 1012mb 43f 36f
9:48 5 6 mph 1012.1mb 43f 36f
9:42 3 5 mph 1012.1mb 43f 36f
9:36 3 6 mph 1012.2mb 43f 36f
9:30 2 3 mph 1012.2mb 43f 36f
9:24 2 6 mph 1012.4mb 43f 36f
9:18 3 5 mph 1012.3mb 43f 35f
9:12 5 7 mph 1012.2mb 43f 35f
9:06 6 8 mph 1012.1mb 43f 35f
9:00 7 8 mph 1012.1mb 43f 35f
8:54 5 8 mph 1012.3mb 43f 35f
8:48 7 8 mph 1012.2mb 43f 35f
8:42 6 7 mph 1012.2mb 43f 35f
8:36 3 6 mph 1012.2mb 43f 35f
8:30 5 6 mph 1012.3mb 43f 35f
8:24 6 9 mph 1012.3mb 43f 35f
8:18 8 10 mph 1012.3mb 43f 35f
8:12 7 8 mph 1012.5mb 43f 35f
8:06 5 9 mph 1012.6mb 43f 35f
8:00 6 7 mph 1012.7mb 43f 35f
7:54 5 8 mph 1012.7mb 43f 35f
7:48 6 10 mph 1012.8mb 43f 35f
7:42 7 9 mph 1012.8mb 43f 35f
7:36 6 7 mph 1012.9mb 43f 35f
7:30 6 8 mph 1013mb 43f 35f
7:24 7 9 mph 1013mb 43f 35f
7:18 7 10 mph 1013.1mb 43f 35f
7:12 3 6 mph 1013mb 43f 36f
7:06 3 5 mph 1013.1mb 43f 35f
7:00  -  3 mph 1013mb 43f 36f
6:54  -  3 mph 1013mb 43f 36f
6:48 1 3 mph 1012.9mb 43f 35f
6:42 2 7 mph 1012.8mb 43f 35f
6:36 3 8 mph 1012.6mb 43f 35f
6:30 2 7 mph 1012.8mb 43f 35f
6:24 3 6 mph 1012.9mb 43f 35f
6:18 5 8 mph 1012.9mb 43f 35f
6:12 6 8 mph 1012.8mb 43f 35f
6:06 7 8 mph 1012.8mb 43f 35f
6:00 7 8 mph 1012.9mb 43f 35f
5:54 7 9 mph 1013mb 43f 35f
5:48 6 8 mph 1013.2mb 43f 35f
5:42 6 8 mph 1013.2mb 43f 35f
5:36 7 9 mph 1013.2mb 43f 35f
5:30 7 9 mph 1013.2mb 43f 36f
5:24 6 8 mph 1013.2mb 43f 36f
5:18 3 6 mph 1013.2mb 43f 36f
5:12 3 5 mph 1013.3mb 43f 36f
5:06 3 5 mph 1013.2mb 43f 36f
5:00 2 3 mph 1013.2mb 43f 36f
4:54 2 6 mph 1013.2mb 43f 36f
4:48 3 6 mph 1013.1mb 43f 36f
4:42 3 6 mph 1013.2mb 43f 36f
4:36 2 6 mph 1013.2mb 43f 36f
4:30 5 6 mph 1013.3mb 43f 36f
4:24 3 6 mph 1013.2mb 43f 37f
4:18 6 8 mph 1013.2mb 43f 36f
4:12 5 8 mph 1013.2mb 43f 37f
4:06 5 7 mph 1013.2mb 43f 37f
4:00 6 8 mph 1013.2mb 43f 37f
3:54 6 7 mph 1013.1mb 43f 37f
3:48 6 9 mph 1013mb 43f 37f
3:42 7 8 mph 1013mb 43f 37f
3:36 6 9 mph 1013.1mb 43f 37f
3:30 7 8 mph 1013mb 43f 37f
3:24 7 8 mph 1013mb 44f 36f
3:18 5 6 mph 1013.1mb 44f 36f
3:12 3 6 mph 1013.2mb 44f 36f
3:06 6 7 mph 1013.2mb 44f 36f
3:00 6 7 mph 1013.2mb 44f 36f
2:54 5 6 mph 1013.2mb 43f 36f
2:48 5 7 mph 1013.2mb 43f -
2:42 7 9 mph 1013.2mb 43f -
2:36 8 9 mph 1013.2mb 43f -
2:30 6 7 mph 1013.1mb 43f 38f
2:24 6 7 mph 1013.1mb 44f 38f
2:18 6
mph
1013.3mb 44f 38f
2:12 5 7 mph 1013.3mb 43f 37f
2:06 5 8 mph 1013.3mb 43f 37f
2:00 7 9 mph 1013.2mb 43f 38f
1:54 6 7 mph 1013.3mb 43f 38f
1:48 6 7 mph 1013.3mb 44f 38f
1:42 6 7 mph 1013.2mb 43f 38f
1:36 5 7 mph 1013.4mb 43f 38f
1:30 6 8 mph 1013.4mb 43f 39f
1:24 6 9 mph 1013.4mb 43f 39f
1:18 6 7 mph 1013.4mb 43f 39f
1:12 5 7 mph 1013.5mb 43f 39f
1:06 6 8 mph 1013.6mb 43f 39f
1:00 6 8 mph 1013.6mb 43f 40f
12:54 7 9 mph 1013.5mb 43f 40f
12:48 7 9 mph 1013.6mb 42f 40f
12:42 6 8 mph 1013.6mb 42f 41f
12:36 3 6 mph 1013.7mb 42f 41f
12:30 5 6 mph 1013.6mb 42f 41f
12:24 3 6 mph 1013.7mb 43f 40f
12:18 5 6 mph 1013.7mb 43f 41f
12:12 5 7 mph 1013.7mb 43f 41f
12:06 6 7 mph 1013.6mb 43f 41f
12:00 6 7 mph 1013.6mb 43f 42f
Mo 04/25 11:54 5 9 mph 1013.5mb 43f 42f
11:48 5 6 mph 1013.5mb 43f 42f
11:42 5 7 mph 1013.5mb 43f 42f
11:36 5 7 mph 1013.5mb 43f 42f
11:30 6 7 mph 1013.5mb 43f 42f
11:24 6 8 mph 1013.5mb 43f 42f
11:18 5 7 mph 1013.6mb 43f 43f
11:12 5 7 mph 1013.7mb 43f 43f
11:06 5 8 mph 1013.6mb 43f 43f
11:00 5 8 mph 1013.6mb 43f 43f
10:54 6 7 mph 1013.5mb 43f 43f
10:48 5 8 mph 1013.4mb 43f 44f
10:42 6 9 mph 1013.3mb 43f 44f
10:36 8 10 mph 1013.3mb 43f 44f
10:30 6 9 mph 1013.2mb 43f 44f
10:24 7 11 mph 1013.2mb 43f 44f
10:18 6 8 mph 1013.1mb 43f 45f
10:12 6 8 mph 1013.1mb 43f 45f
10:06 6 9 mph 1013mb 43f 45f
10:00 7 10 mph 1013mb 43f 46f
9:54 8 11 mph 1013mb 43f 46f
9:48 8 11 mph 1012.9mb 44f 46f
9:42 8 10 mph 1012.9mb 44f 46f
9:36 6 9 mph 1012.8mb 43f 47f
9:30 6 11 mph 1012.8mb 43f 47f
9:24 6 9 mph 1012.7mb 43f 47f
9:18 6 11 mph 1012.6mb 43f 46f
9:12 5 6 mph 1012.5mb 43f 46f
9:06 5 6 mph 1012.5mb 43f 46f
9:00 6
mph
1012.5mb 43f 46f
8:54 6
mph
1012.4mb 43f 46f
8:48 5 8 mph 1012.3mb - 46f
8:42 6 9 mph 1012.2mb - 47f
8:36 6 9 mph 1012.1mb - 47f
8:30 7 10 mph 1012mb 43f 47f
8:24 8 13 mph 1011.9mb 43f 46f
8:18 7 11 mph 1011.7mb 43f 46f
8:12 9 11 mph 1011.6mb 44f 47f
8:06 8 11 mph 1011.5mb 44f 47f
8:00 8 13 mph 1011.4mb 44f 47f
7:54 7 11 mph 1011.4mb 44f 47f
7:48 8 10 mph 1011.3mb 44f 47f
7:42 9 13 mph 1011.3mb 44f 47f
7:36 8 11 mph 1011.2mb 44f 48f
7:30 8 11 mph 1011.2mb 44f 48f
7:24 7 11 mph 1011.1mb 44f 48f
7:18 7 11 mph 1011.1mb 44f 49f
7:12 7 10 mph 1011mb 44f 49f
7:06 7 14 mph 1010.9mb 44f 49f
7:00 7 15 mph 1010.8mb 44f 50f
6:54 8 13 mph 1010.8mb 44f 50f
6:48 8 14 mph 1010.7mb 44f 50f
6:42 6 14 mph 1010.6mb 44f 51f
6:36 11 17 mph 1010.6mb 44f 51f
6:30 10 15 mph 1010.6mb 44f 51f
6:24 13 16 mph 1010.6mb 44f 51f
6:18 11 15 mph 1010.6mb 44f 51f
6:12 11 16 mph 1010.5mb 44f 51f
6:06 11 17 mph 1010.6mb 44f 51f
6:00  -  mph 1010.6mb 44f 51f
5:54  -  mph 1010.6mb 44f 52f
5:48  -  mph 1010.5mb 44f 52f
5:42  -  mph 1010.5mb 44f 52f
5:36  -  mph 1010.6mb 44f 53f
5:30 8 11 mph 1010.5mb 44f 52f
5:24 8 15 mph 1010.5mb 44f 52f
5:18 7 15 mph 1010.6mb 44f 53f
5:12 9 17 mph 1010.5mb 44f 52f
5:06 9 16 mph 1010.5mb 44f 52f
5:00 10 15 mph 1010.6mb 44f 52f
4:54 7 18 mph 1010.6mb 44f 52f
4:48 7 17 mph 1010.6mb 44f 53f
4:42 9 16 mph 1010.6mb 45f 53f
4:36 7 13 mph 1010.6mb 45f 53f
4:30 9 16 mph 1010.4mb 45f 53f
4:24 7 13 mph 1010.6mb 45f 53f
4:18 5 7 mph 1010.6mb 44f 51f
4:12 6 7 mph 1010.7mb 44f 51f
4:06 5 7 mph 1010.7mb 44f 51f
4:00 3 7 mph 1010.7mb 44f 50f
3:54 7 13 mph 1010.8mb 44f 49f
3:48 11 13 mph 1010.9mb 44f 47f
3:42 11 13 mph 1010.9mb 44f 46f
3:36 13 15 mph 1011mb 44f 46f
3:30 8 11 mph 1011mb 44f 47f
3:24 11 17 mph 1011.1mb 44f 46f
3:18 14 16 mph 1011.2mb 44f 45f
3:12 8 13 mph 1011.3mb 44f 47f
3:06 10 17 mph 1011.4mb 44f 45f
3:00 9 14 mph 1011.5mb 44f 45f
2:54 14 17 mph 1011.5mb 44f 45f
2:48 11 15 mph 1011.7mb 44f 44f
2:42 11 14 mph 1011.8mb 44f 44f
2:36 10 16 mph 1011.9mb 44f 44f
2:30 10 17 mph 1011.9mb 44f 45f
2:24 9 16 mph 1011.9mb 44f 44f
2:18 5 17 mph 1012mb 44f 45f
2:12 13 18 mph 1012mb 44f 44f
2:06 11 16 mph 1012mb 44f 45f
2:00 8 15 mph 1011.9mb 44f 47f
1:54 13 22 mph 1012.2mb 44f 50f
1:48 11 20 mph 1012mb 45f 50f
1:42 7 18 mph 1012.1mb 45f 50f
1:36 13 17 mph 1012.1mb 44f 50f
1:30 10 21 mph 1012.2mb 44f 49f
1:24 14 21 mph 1012.1mb 45f 49f
1:18 13 16 mph 1012.3mb 44f 49f
1:12 11 16 mph 1012.4mb 44f 48f
1:06 17 21 mph 1012.5mb 45f 48f
1:00 20 25 mph 1012.3mb 45f 48f
12:54 14 16 mph 1012.6mb 45f 48f
12:48 13 25 mph 1012.7mb 45f 48f
12:42 9 21 mph 1012.7mb 44f 48f
12:36 16 20 mph 1012.8mb 44f 48f
12:30 8 16 mph 1013mb 44f 48f
12:24 13 17 mph 1013.1mb 43f 48f
12:18 14 21 mph 1013.2mb 43f 47f
12:12 10 16 mph 1013.4mb 43f 47f
12:06 14 17 mph 1013.4mb 43f 47f
12:00 9 17 mph 1013.5mb 43f 48f
11:54 9 17 mph 1013.7mb 43f 47f
11:48 15 21 mph 1013.7mb 43f 46f